Flag for Germany Weather past 2 weeks in Landsberg am Lech, Bavaria, Germany

Now
50 °F

Cool.


Feels Like: 44 °F
Forecast: 37 / 46 °F
Wind: 20 mph from West

Location: Landsberg

Current Time: Dec 19, 2014 at 3:44:27 AM

Latest Report: Dec 19, 2014 at 2:20 AM


Visibility: N/A

Pressure: 30.15 "Hg

Humidity: 82%

Dew point: 45 °F

Location of Landsberg am LechLocation

Historic Weather in Landsberg am Lech — Graph

°F

Landsberg am Lech temperature yesterday

Maximum temperature yesterday: 50 °F (at 12:20 PM)
Minimum temperature yesterday: 41 °F (at 12:20 AM)
Average temperature yesterday: 46 °F

Past Weeks' High & Low Weather Summary

 TemperatureHumidityPressure
High52 °F (Dec 14, 12:20 PM)100% (Dec 4, 6:20 AM)30.39 "Hg (Dec 4, 6:20 AM)
Low27 °F (Dec 10, 6:20 AM)49% (Dec 12, 11:20 PM)29.77 "Hg (Dec 12, 9:20 PM)
Average38 °F85%30.04 "Hg
* Reported Dec 4 2:20 AM — Dec 19 2:20 AM, Landsberg am Lech, Weather by CustomWeather, © 2014

Note: Actual official high and low records may vary slightly from our data, if they occured in-between our weather recording intervals... More about our weather records

Advertising

Landsberg am Lech weather history for previous 24 hours

 ConditionsComfort  
Time TempWeatherWind HumidityBarometerVisibility
2:20 AM
Dec 19
50 °FCool.20 mph82%30.15 "HgN/A
1:20 AM50 °FCool.20 mph82%30.12 "HgN/A
12:20 AM50 °FCool.23 mph82%30.12 "HgN/A
11:20 PM
Dec 18
50 °FCool.25 mph88%30.12 "HgN/A
10:20 PM50 °FCool.23 mph88%30.12 "HgN/A
9:20 PM50 °FCool.22 mph88%30.12 "HgN/A
8:20 PM50 °FCool.22 mph88%30.09 "HgN/A
7:20 PM48 °FCool.18 mph94%30.09 "Hg3 mi
6:20 PM48 °FCool.17 mph94%30.07 "Hg3 mi
5:20 PM46 °FCool.20 mph100%30.07 "Hg1 mi
5:00 PM46 °FDrizzle. Fog.20 mph93%30.07 "Hg2 mi
4:20 PM46 °FDrizzle. Fog.18 mph93%30.07 "Hg3 mi
3:20 PM46 °FDrizzle. Fog.17 mph93%30.04 "Hg2 mi
2:20 PM46 °FDrizzle. Mostly cloudy.18 mph93%30.04 "Hg2 mi
1:46 PM46 °FDrizzle. Mostly cloudy.18 mph93%30.04 "Hg2 mi
1:20 PM48 °FDrizzle. Mostly cloudy.18 mph87%30.04 "Hg3 mi
12:20 PM50 °FScattered showers. Partly sunny.20 mph76%30.04 "HgN/A
11:20 AM48 °FMore clouds than sun.13 mph76%30.04 "HgN/A
10:20 AM48 °FPartly sunny.13 mph76%30.04 "HgN/A
9:20 AM46 °FPartly sunny.12 mph82%30.04 "HgN/A
8:20 AM45 °FLight rain. Broken clouds.12 mph81%30.04 "HgN/A
7:20 AM45 °FPartly cloudy.14 mph81%30.04 "HgN/A
6:20 AM43 °FPartly cloudy.13 mph87%30.01 "HgN/A
5:20 AM43 °FPassing clouds.14 mph87%30.01 "HgN/A
4:20 AM43 °FOvercast.15 mph87%30.01 "HgN/A
3:20 AM43 °FOvercast.13 mph87%30.01 "HgN/A
Weather by CustomWeather, © 2014

See weather overviewHow to use our weather pages